EW1845 Weather Reports


Display with metric or nautical units.
time (UTC)temp
F
wind
direction
speed
MPH
gust
MPH
rain 1hr
in
rain 24hr
in
rain mn
in
humidity
%
barometer
mb
20260505153111 57 58 0.0 3.0 0.00 0.00 0.00 73 1013.4
20260505152540 57 54 0.0 0.0 0.00 0.00 0.00 76 1013.4
20260505151542 56 320 0.0 0.0 0.00 0.00 0.00 77 1013.3
20260505151503 55 320 0.0 2.0 0.00 0.00 0.00 77 1013.4
20260505150601 56 326 0.0 0.0 0.00 0.00 0.00 77 1013.2
20260505140514 52 354 0.0 0.0 0.00 0.00 0.00 83 1013.0
20260505140132 51 343 0.0 1.0 0.00 0.00 0.00 84 1013.1
20260505130103 49 351 0.0 1.0 0.00 0.00 0.00 86 1012.8
20260505124501 49 351 0.0 1.0 0.00 0.00 0.00 85 1012.7
20260505124324 50 351 0.0 0.0 0.00 0.00 0.00 85 1012.7
20260505123333 51 351 0.0 0.0 0.00 0.00 0.00 83 1012.7
20260505123114 51 351 0.0 0.0 0.00 0.00 0.00 82 1012.7
20260505122349 52 351 0.0 0.0 0.00 0.00 0.00 83 1012.6
20260505121504 51 333 0.0 1.0 0.00 0.00 0.00 84 1012.7
20260505121342 51 333 0.0 0.0 0.00 0.00 0.00 84 1012.6
20260505120345 51 333 0.0 0.0 0.00 0.00 0.00 83 1012.7
20260505120004 51 332 0.0 1.0 0.00 0.00 0.00 82 1012.8
20260505115316 52 332 0.0 0.0 0.00 0.00 0.00 83 1012.7
20260505114606 51 341 0.0 0.0 0.00 0.00 0.00 82 1012.7
20260505114339 52 342 0.0 0.0 0.00 0.00 0.00 82 1012.7
20260505113403 53 341 0.0 0.0 0.00 0.00 0.00 80 1012.6
20260505113007 53 341 0.0 1.0 0.00 0.00 0.00 80 1012.6
20260505112345 54 341 0.0 0.0 0.00 0.00 0.00 79 1012.6
20260505111604 54 341 0.0 1.0 0.00 0.00 0.00 78 1012.7
20260505111354 54 341 0.0 0.0 0.00 0.00 0.00 78 1012.7
20260505100003 54 41 0.0 3.0 0.00 0.00 0.00 78 1012.8
20260505095847 55 41 0.0 0.0 0.00 0.00 0.00 78 1012.8
20260505094817 55 19 0.0 4.0 0.00 0.00 0.00 78 1012.8
20260505094611 54 35 0.0 3.0 0.00 0.00 0.00 78 1012.9
20260505093759 55 339 0.0 6.0 0.00 0.00 0.00 78 1012.9
20260505093003 54 44 1.0 5.0 0.00 0.00 0.00 78 1013.0
20260505092820 55 19 0.0 4.0 0.00 0.00 0.00 78 1013.0
20260505091817 55 329 0.0 2.0 0.00 0.00 0.00 78 1013.2
20260505091603 54 47 0.0 4.0 0.00 0.00 0.00 78 1013.3
20260505090834 55 340 0.0 2.0 0.00 0.00 0.00 77 1013.4
20260505090111 54 343 0.0 6.0 0.00 0.00 0.00 77 1013.4
20260505084502 54 349 1.0 5.0 0.00 0.00 0.00 77 1013.5
20260505083110 55 356 2.0 5.0 0.00 0.00 0.00 78 1013.7
20260505082359 55 342 0.0 3.0 0.00 0.00 0.00 78 1013.7
20260505081503 54 323 1.0 6.0 0.00 0.00 0.00 79 1013.7
20260505081357 55 285 0.0 4.0 0.00 0.00 0.00 79 1013.7
20260505080416 54 79 0.0 1.0 0.00 0.00 0.00 83 1013.7
20260505080002 54 156 0.0 1.0 0.00 0.00 0.00 86 1013.8
20260505075412 55 186 0.0 0.0 0.00 0.00 0.00 87 1013.8
20260505074602 54 16 0.0 1.0 0.00 0.00 0.00 87 1013.9
20260505074359 55 17 0.0 0.0 0.00 0.00 0.00 87 1013.9
20260505073343 55 358 0.0 0.0 0.00 0.00 0.00 87 1013.9
20260505073005 55 359 0.0 1.0 0.00 0.00 0.00 87 1014.0
20260505072349 55 3 0.0 0.0 0.00 0.00 0.00 88 1014.1
20260505071606 55 80 0.0 1.0 0.00 0.00 0.00 89 1014.0
20260505071410 55 110 0.0 0.0 0.00 0.00 0.00 89 1013.9
20260505070427 55 163 0.0 0.0 0.00 0.00 0.00 88 1014.0
20260505065415 55 163 0.0 0.0 0.00 0.00 0.00 88 1014.0
20260505064503 55 163 0.0 0.0 0.00 0.00 0.00 88 1014.2
20260505064427 55 163 0.0 0.0 0.00 0.00 0.00 88 1014.1
20260505063404 55 163 0.0 0.0 0.00 0.00 0.00 87 1014.0
20260505063104 55 163 0.0 0.0 0.00 0.00 0.00 88 1014.1
20260505061507 55 163 0.0 1.0 0.00 0.00 0.00 87 1014.1
20260505061230 55 146 0.0 0.0 0.00 0.00 0.00 87 1014.1
20260505060205 55 32 0.0 0.0 0.00 0.00 0.00 86 1014.2
20260505060002 55 32 0.0 0.0 0.00 0.00 0.00 86 1014.2
20260505055216 55 32 0.0 0.0 0.00 0.00 0.00 86 1014.2
20260505054603 55 32 0.0 0.0 0.00 0.00 0.00 86 1014.2
20260505054226 55 32 0.0 0.0 0.00 0.00 0.00 86 1014.2
20260505053204 55 32 0.0 0.0 0.00 0.00 0.00 86 1014.1
20260505053004 55 32 0.0 0.0 0.00 0.00 0.00 86 1014.2
20260505052220 55 32 0.0 0.0 0.00 0.00 0.00 85 1014.1
20260505051602 55 32 0.0 0.0 0.00 0.00 0.00 85 1014.3
20260505050128 55 32 0.0 1.0 0.00 0.00 0.00 84 1014.4
20260505041503 56 244 0.0 3.0 0.00 0.00 0.00 80 1014.5
20260505040838 56 253 0.0 2.0 0.00 0.00 0.00 79 1014.4
20260505040001 56 141 0.0 3.0 0.00 0.00 0.00 78 1014.4
20260505035841 56 185 0.0 0.0 0.00 0.00 0.00 78 1014.3
20260505034821 56 279 0.0 0.0 0.00 0.00 0.00 78 1014.3
20260505034602 56 281 0.0 3.0 0.00 0.00 0.00 78 1014.3
20260505033804 56 143 0.0 0.0 0.00 0.00 0.00 78 1014.1
20260505033002 56 126 1.0 4.0 0.00 0.00 0.00 78 1014.1
20260505032812 56 200 0.0 3.0 0.00 0.00 0.00 78 1014.1
20260505031808 56 240 0.0 4.0 0.00 0.00 0.00 77 1014.0
20260505031602 56 188 0.0 5.0 0.00 0.00 0.00 77 1014.1
20260505025641 56 252 0.0 4.0 0.00 0.00 0.00 77 1014.0
20260505024644 56 69 3.0 8.0 0.00 0.00 0.00 77 1013.9
20260505024502 56 203 3.0 9.0 0.00 0.00 0.00 78 1013.9
20260505023626 57 167 1.0 5.0 0.00 0.00 0.00 78 1013.8
20260505023103 56 140 2.0 6.0 0.00 0.00 0.00 78 1013.9
20260505022601 57 201 1.0 8.0 0.00 0.00 0.00 77 1013.7
20260505021623 57 229 1.0 9.0 0.00 0.00 0.00 77 1013.8
20260505021507 57 207 2.0 7.0 0.00 0.00 0.00 77 1013.8
20260505020617 57 222 2.0 9.0 0.00 0.00 0.00 77 1013.7
20260505020004 57 173 4.0 10.0 0.00 0.00 0.00 76 1013.7
20260505015556 58 171 3.0 9.0 0.00 0.00 0.00 75 1013.6
20260505014631 58 194 3.0 6.0 0.00 0.00 0.00 74 1013.6
20260505014538 58 210 2.0 11.0 0.00 0.00 0.00 74 1013.6
20260505013520 59 145 4.0 11.0 0.00 0.00 0.00 73 1013.6
20260505013002 58 204 4.0 12.0 0.00 0.00 0.00 74 1013.8
20260505012529 59 250 3.0 10.0 0.00 0.00 0.00 73 1013.8
20260505011608 59 233 4.0 11.0 0.00 0.00 0.00 73 1013.9
20260505011513 59 224 2.0 8.0 0.00 0.00 0.00 73 1013.8
20260505010538 59 241 2.0 8.0 0.00 0.00 0.00 72 1013.8
20260505010104 59 231 3.0 7.0 0.00 0.00 0.00 74 1014.0
20260505005508 60 237 2.0 11.0 0.00 0.00 0.00 74 1013.9
20260505004506 60 210 4.0 11.0 0.00 0.00 0.00 73 1013.9
20260505004501 59 235 5.0 12.0 0.00 0.00 0.00 73 1014.0
20260505003530 60 213 3.0 11.0 0.00 0.00 0.00 72 1013.9
20260505003108 60 169 3.0 8.0 0.00 0.00 0.00 72 1014.0
20260505002538 60 158 4.0 11.0 0.00 0.00 0.00 73 1013.9
20260505001529 61 152 3.0 10.0 0.00 0.00 0.00 72 1013.9
20260505001503 60 227 3.0 8.0 0.00 0.00 0.00 72 1014.0
20260505000457 61 206 4.0 11.0 0.00 0.00 0.00 72 1013.8
20260505000139 61 219 3.0 10.0 0.00 0.00 0.00 72 1013.8
20260504235422 61 188 4.0 11.0 0.00 0.00 0.00 71 1013.8
20260504234504 61 218 3.0 9.0 0.00 0.00 0.00 74 1013.8
20260504234408 61 156 4.0 8.0 0.00 0.00 0.00 74 1013.8
20260504233109 60 204 3.0 12.0 0.00 0.00 0.00 71 1013.7
20260504232204 62 265 4.0 11.0 0.00 0.00 0.00 70 1013.8
20260504231501 61 214 2.0 11.0 0.00 0.00 0.00 71 1013.8
20260504230023 62 206 4.0 15.0 0.00 0.00 0.00 69 1013.9
20260504230002 62 162 5.0 12.0 0.00 0.00 0.00 69 1014.0
20260504225033 62 159 5.0 15.0 0.00 0.00 0.00 70 1013.9
20260504224611 62 219 7.0 16.0 0.00 0.00 0.00 69 1014.1
20260504224038 62 227 5.0 15.0 0.00 0.00 0.00 70 1014.1
20260504223017 62 217 5.0 15.0 0.00 0.00 0.00 70 1014.1
20260504223003 62 210 5.0 16.0 0.00 0.00 0.00 70 1014.2
20260504222024 63 186 5.0 14.0 0.00 0.00 0.00 68 1014.3
20260504221603 62 179 5.0 13.0 0.00 0.00 0.00 67 1014.4
20260504221040 63 186 5.0 17.0 0.00 0.00 0.00 68 1014.4
20260504220057 63 195 5.0 17.0 0.00 0.00 0.00 68 1014.6
20260504215034 63 252 7.0 15.0 0.00 0.00 0.00 66 1014.6
20260504214502 62 256 9.0 16.0 0.00 0.00 0.00 65 1014.8
20260504214046 63 134 6.0 15.0 0.00 0.00 0.00 65 1014.8
20260504211923 63 296 6.0 14.0 0.00 0.00 0.00 64 1014.8
20260504211508 62 181 8.0 15.0 0.00 0.00 0.00 63 1014.9
20260504210906 63 276 5.0 15.0 0.00 0.00 0.00 63 1014.9
20260504210003 63 129 5.0 16.0 0.00 0.00 0.00 63 1014.9
20260504205904 64 243 6.0 15.0 0.00 0.00 0.00 62 1014.8
20260504204854 66 248 5.0 12.0 0.00 0.00 0.00 57 1014.8
20260504204604 65 257 5.0 13.0 0.00 0.00 0.00 57 1014.9
20260504203829 65 281 5.0 11.0 0.00 0.00 0.00 58 1014.8
20260504203007 65 225 4.0 11.0 0.00 0.00 0.00 55 1014.8
20260504202822 65 155 5.0 13.0 0.00 0.00 0.00 57 1014.7
20260504201813 66 172 4.0 13.0 0.00 0.00 0.00 56 1014.7
20260504201602 65 226 4.0 13.0 0.00 0.00 0.00 58 1014.8
20260504195714 65 204 4.0 12.0 0.00 0.00 0.00 58 1014.8
20260504194725 63 204 5.0 12.0 0.00 0.00 0.00 60 1014.9
20260504194503 63 221 7.0 13.0 0.00 0.00 0.00 60 1015.0
20260504193709 64 206 4.0 12.0 0.00 0.00 0.00 58 1015.0
20260504193112 64 217 5.0 13.0 0.00 0.00 0.00 60 1015.1
20260504192720 64 207 4.0 9.0 0.00 0.00 0.00 64 1015.1
20260504191717 63 205 4.0 11.0 0.00 0.00 0.00 62 1015.0
20260504191502 62 266 4.0 9.0 0.00 0.00 0.00 62 1015.0
20260504190651 62 181 3.0 11.0 0.00 0.00 0.00 65 1015.1
20260504190003 61 183 2.0 9.0 0.00 0.00 0.00 65 1015.1
20260504185636 61 211 4.0 9.0 0.00 0.00 0.00 65 1015.2
20260504184608 61 229 3.0 10.0 0.00 0.00 0.00 68 1015.3
20260504183005 60 275 3.0 9.0 0.00 0.00 0.00 68 1015.3
20260504182430 60 240 3.0 10.0 0.00 0.00 0.00 67 1015.3
20260504181606 60 213 2.0 9.0 0.00 0.00 0.00 68 1015.3
20260504181414 61 214 4.0 11.0 0.00 0.00 0.00 67 1015.3
20260504180358 62 225 4.0 11.0 0.00 0.00 0.00 67 1015.2
20260504175335 64 223 1.0 5.0 0.00 0.00 0.00 65 1015.0
20260504174503 62 195 2.0 6.0 0.00 0.00 0.00 68 1015.1
20260504173134 61 195 0.0 5.0 0.00 0.00 0.00 67 1015.0
20260504173115 61 200 2.0 5.0 0.00 0.00 0.00 66 1015.1
20260504172139 60 181 0.0 3.0 0.00 0.00 0.00 67 1015.0
20260504171503 59 212 0.0 4.0 0.00 0.00 0.00 67 1015.0
20260504171131 60 167 0.0 1.0 0.00 0.00 0.00 68 1015.0
20260504170122 60 174 0.0 0.0 0.00 0.00 0.00 70 1014.9
20260504160112 59 150 0.0 3.0 0.00 0.01 0.00 79 1014.7